Location: Camoruquito
(9.9001°N, 67.3564°W)
Time: 04:25:48
(UTC+00:00)

GPS 2-15 Rocket1 - Pass Details

Date: 14 April 2024
Orbit: 616 x 664 km, 19.8° (Epoch: 20 May)

Event Time Altitude Azimuth Distance (km) Brightness Sun altitude
Exits shadow 09:45:58 10° 277° (W) 2,098 5.2 -8.9°
Reaches altitude 10° 09:46:03 10° 278° (W) 2,069 5.1 -8.9°
Maximum altitude 09:50:38 40° 347° (NNW) 968 4.1 -7.8°
Drops below altitude 10° 09:55:11 10° 57° (ENE) 2,055 7.1 -6.7°
Sets 09:57:41 0° 65° (ENE) 2,960 8.5 -6.1°
